Abilene Dyess, TX

6:13 AM CDT on July 26, 2017 (GMT -0500)
Dyess Air Force Base

Weather History for KDYS - May, 2014

Change the Weather History Date:

Wednesday, May 7, 2014

  Actual Average Record
Temperature  
Mean Temperature 80 °F -  
Max Temperature 99 °F 84 °F 104 °F (2000)
Min Temperature 62 °F 60 °F 42 °F (1999)
Cooling Degree Days 16    
Growing Degree Days 30 (Base 50)    
Moisture  
Dew Point 59 °F    
Average Humidity 49    
Maximum Humidity 92    
Minimum Humidity 16    
Precipitation  
Precipitation 1.36 in - - ()
Sea Level Pressure  
Sea Level Pressure 29.60 in    
Wind  
Wind Speed 19 mph (South)    
Max Wind Speed 50 mph    
Max Gust Speed 77 mph    
Visibility 9 miles    
Events Rain , Thunderstorm    
Averages and records for this station are not official NWS values.
T = Trace of Precipitation, MM = Missing Value Source: NWS Daily Summary

Daily Weather History Graph

Daily Weather History Graph

Search for Another Location

Airport or City:

Trip Planner

Search our weather history database for the weather conditions in past years. The results will help you decide how hot, cold, wet, or windy it might be!

Date:

Astronomy

May. 07, 2014 Rise Set
Actual Time 6:47 AM CDT 8:24 PM CDT
Civil Twilight 6:20 AM CDT 8:51 PM CDT
Nautical Twilight 5:49 AM CDT 9:23 PM CDT
Astronomical Twilight 5:15 AM CDT 9:57 PM CDT
Moon 1:54 PM CDT (5/7) 2:23 AM CDT (5/7)
Length of Visible Light 14h 30m
Length of Day
13h 37m
First Quarter, 55% of the Moon is Illuminated
May 7
First Quarter
May 14
Full
May 21
Last Quarter
May 28
New
Jun 5
First Quarter

Hourly Weather History & Observations

Time (CDT) Temp. Heat Index Dew Point Humidity Pressure Visibility Wind Dir Wind Speed Gust Speed Precip Events Conditions
12:58 AM 79.9 °F - 57.7 °F 47% 29.56 in 10.0 mi South 20.7 mph 24.2 mph N/A   Clear
1:58 AM 79.2 °F - 57.7 °F 48% 29.56 in 10.0 mi South 10.4 mph - N/A   Clear
2:58 AM 76.8 °F - 59.9 °F 56% 29.55 in 10.0 mi South 13.8 mph - N/A   Partly Cloudy
3:58 AM 74.7 °F - 61.2 °F 63% 29.55 in 10.0 mi South 12.7 mph - N/A   Clear
4:58 AM 73.2 °F - 61.9 °F 68% 29.56 in 10.0 mi SSE 15.0 mph - N/A   Partly Cloudy
5:58 AM 71.2 °F - 62.2 °F 73% 29.57 in 10.0 mi SSE 11.5 mph - N/A   Mostly Cloudy
6:58 AM 71.6 °F - 62.6 °F 73% 29.57 in 10.0 mi SSE 12.7 mph - N/A   Scattered Clouds
7:58 AM 72.3 °F - 63.3 °F 73% 29.59 in 10.0 mi South 8.1 mph - N/A   Scattered Clouds
8:58 AM 78.8 °F - 62.2 °F 57% 29.61 in 10.0 mi SSE 16.1 mph 25.3 mph N/A   Clear
9:58 AM 82.4 °F 83.4 °F 62.6 °F 51% 29.61 in 10.0 mi South 23.0 mph 31.1 mph N/A   Clear
10:58 AM 85.5 °F 86.6 °F 63.7 °F 48% 29.60 in 10.0 mi South 20.7 mph - N/A   Clear
11:58 AM 90.1 °F 90.9 °F 62.6 °F 40% 29.60 in 10.0 mi South 23.0 mph 27.6 mph N/A   Clear
12:58 PM 92.3 °F 92.7 °F 61.9 °F 36% 29.57 in 10.0 mi SSW 20.7 mph 28.8 mph N/A   Partly Cloudy
1:58 PM 94.3 °F 93.4 °F 58.5 °F 30% 29.55 in 10.0 mi South 21.9 mph 29.9 mph N/A   Scattered Clouds
2:26 PM 95.0 °F 93.0 °F 55.4 °F 26% 29.69 in 10.0 mi SSW 19.6 mph 31.1 mph N/A   Partly Cloudy
2:58 PM 95.9 °F 93.9 °F 55.0 °F 25% 29.52 in 10.0 mi SSW 17.3 mph 27.6 mph N/A   Partly Cloudy
3:46 PM 96.8 °F - 50.0 °F 20% 29.65 in 10.0 mi SSW 18.4 mph 27.6 mph N/A   Scattered Clouds
3:58 PM 97.9 °F - 51.8 °F 21% 29.48 in 10.0 mi South 21.9 mph 32.2 mph N/A   Scattered Clouds
4:58 PM 99.0 °F - 46.0 °F 16% 29.46 in 10.0 mi South 24.2 mph 47.2 mph N/A   Scattered Clouds
5:58 PM 96.6 °F - 45.7 °F 17% 29.46 in 10.0 mi South 24.2 mph 34.5 mph N/A   Partly Cloudy
6:58 PM 96.3 °F - 45.5 °F 18% 29.45 in 10.0 mi SSW 18.4 mph 33.4 mph N/A   Clear
7:12 PM 95.0 °F - 51.8 °F 23% 29.60 in 10.0 mi SSE 27.6 mph 28.8 mph N/A   Partly Cloudy
7:58 PM 87.3 °F 88.0 °F 62.6 °F 44% 29.45 in 10.0 mi SE 25.3 mph 35.7 mph N/A   Clear
8:45 PM 86.0 °F 86.1 °F 60.8 °F 43% 29.60 in 10.0 mi SSE 33.4 mph 43.7 mph N/A Thunderstorm Mostly Cloudy
8:46 PM 86.0 °F 86.1 °F 60.8 °F 43% 29.60 in 10.0 mi SSE 29.9 mph 43.7 mph N/A Rain , Thunderstorm Light Thunderstorms and Rain
8:51 PM 84.2 °F 85.6 °F 64.4 °F 51% 29.60 in 10.0 mi SSE 23.0 mph 40.3 mph N/A Thunderstorm Thunderstorm
8:59 PM 83.1 °F 84.0 °F 62.8 °F 50% 29.45 in 10.0 mi SSE 26.5 mph 36.8 mph 0.00 in Thunderstorm Thunderstorm
9:10 PM 84.2 °F 84.4 °F 60.8 °F 45% 29.60 in 10.0 mi SSE 25.3 mph 38.0 mph N/A Rain , Thunderstorm Light Thunderstorms and Rain
9:25 PM 77.0 °F - 60.8 °F 57% 29.69 in 0.2 mi West 49.5 mph 72.5 mph N/A Rain , Thunderstorm Light Thunderstorms and Rain
9:32 PM 62.6 °F - 57.2 °F 82% 29.81 in 0.2 mi West 18.4 mph 77.1 mph N/A Rain , Thunderstorm Heavy Thunderstorms and Rain
9:41 PM 62.6 °F - 59.0 °F 88% 29.80 in 2.0 mi SSW 12.7 mph 29.9 mph N/A Rain , Thunderstorm Thunderstorms and Rain
9:58 PM 63.1 °F - 60.8 °F 92% 29.74 in 7.0 mi South 25.3 mph 32.2 mph 1.28 in Rain , Thunderstorm Light Thunderstorms and Rain
10:58 PM 68.4 °F - 59.4 °F 73% 29.71 in 8.0 mi SSE 20.7 mph 29.9 mph 0.06 in Rain , Thunderstorm Light Thunderstorms and Rain
11:40 PM 71.6 °F - 59.0 °F 64% 29.77 in 10.0 mi South 23.0 mph 28.8 mph N/A Rain , Thunderstorm Light Rain Showers
11:58 PM 71.6 °F - 60.3 °F 67% 29.67 in 9.0 mi South 16.1 mph 34.5 mph 0.02 in Rain Light Rain Showers